Starlink 32499

operational
NORAD ID: 61959 Int'l Des: 2024-210 Owner: SPXS Country: US Constellation: starlink
LEOCIRCULAR

Über Starlink 32499

Beschreibung wird geladen...

Live-Position

3D-Globus wird geladen...

Nächste Überflüge

Höhenverlauf

Altitude vs Time

uPlot chart will show altitude changes over time

Zweizeiliger Elementsatz

1 61959U 24210A 26034.28999633 .00042273 00000-0 15356-2 0 9993
2 61959 43.0006 13.6970 0001496 262.4172 97.6509 15.27607067 69669
Epoch: 3. Feb. 2026 • Age: 19 hours

Aktueller Status

Höhe 484.1 km
Geschwindigkeit 7.63 km/s
Subsatellitenpunkt 29.82°N, 117.26°W
Startdatum 14. Nov. 2024
Alter 1.2 years
Typ internet

Technische Details

Klassifizierung Payload
Masse 730.00 kg
Trockenmasse 700.00 kg
Gesamtmasse 730.00 kg
Länge 0.30 m
Durchmesser 4.10 m
Spannweite 29.00 m
Form Box + pan
Hersteller SPXS
Bus-Typ Starlink V2M
Phasenstatus In Orbit
Besitzer/Staat SPXS/US

Große Konstellationen

Loading constellations...